master138

Jackpot

Texas Poker Multi Jackpot System

Kini Telah hadir Jackpot SUPER ROYAL FLUSH

Kini Telah hadir Jackpot 2000 (khusus table VIP keatas).

Ikutilah global jackpot yang tersedia di system kami, dengan system jackpot terbaru dan pertama di indonesia, anda dapat membeli jackpot dengan harga 100 rupiah saja dan menangkan hadiahnya hingga puluhan juta rupiah.

Jackpot bukanlah suatu keharusan untuk dibeli, namun kami memberikan suatu fitur tambahan untuk member tercinta dari www.ingatpoker.com.

Terdapat tiga pilihan harga jackpot yang bisa anda beli yaitu :100,500,1000 dan 2000(khusus table VIP Keatas) rupiah.

Hadiah dari Multi jackpot system www.ingatpoker.com

  1. full house x 10 harga jackpot yang anda beli.
      (contoh:anda membeli 1000 maka:1000 X10 = 10.000)
  2. four of kind x 250 harga jackpot yang anda beli
      (contoh:anda membeli 1000 maka:1000 X250 = 250.000)
  3. Straight flush x 1200
      (contoh:anda membeli 1000 maka:1000 X1200 = 1.200.000)
  4. Royal flush x 10000 harga jackpot yang anda beli
      (contoh:anda membeli 1000 maka:1000 X10000 = 10.000.000)
  5. SUPER ROYAL FLUSH x 30000 harga jackpot yang anda beli
      (contoh:anda membeli 1000 maka:1000 X30000 = 30.000.000)

Kondisi kartu

  1. full house adalah kondisi kartu dimana kartu anda dan kartu tengah dengan total 7 kartu bisa mendapatkan nilai 5 kartu dengan kombinasi 1 tris(three of kind) dan 1 pair, contoh 3 kartu 10 dan 2 kartu 5
  2. Four of kind adalah kondisi kartu dimana kartu anda dan kartu tengah dengan total 7 kartu bisa mendapatkan nilai 5 kartu dengan kombinasi 4 kartu yang sama jumlah dan 1 kartu apapun juga contoh anda mendapatkan 4 buah kartu angka 3 dan 1 kartu apapun.
  3. Staright flush adalah kondisi kartu dimana kartu anda dan kartu tengah dengan total 7 kartu bisa mendapatkan nilai 5 kartu dengan kombinasi seri / staright dengan kembang yang sama contoh : urutan kartu dari angka 5, 6, 7, 8 , 9 10 dengan kembang yg sama misalnya as hati
  4. Royal flush adalah kondisi kartu dimana kartu anda dan kartu tengah dengan total 7 kartu bisa mendapatkan nilai 5 kartu dengan kombinasi seri / staright dengan kembang yang sama tetapi kartu tersebut haruslah dimulai dari 10. contoh 10, Queen, Jack, King dan aces dengan kembang yang sama
  5. Super Royal flush adalah kondisi kartu dimana Kedua kartu anda digabung dengan 3 kartu pertama meja haruslah royal flush. contoh kartu anda 10,Queen kembang sama dan 3 kartu pertama meja adalah Jack, King dan aces dengan kembang yang sama

Demikian adalah penjelasan dari Multi Jackpot www.ingatpoker.com terima kasih dan selamat bermain salam hoki dari kami

Texas Poker Jackpot Winner

TOP SUPER ROYAL FLUSH
No.TanggalNamaPriceWin
124/09 16:41SUM4RNOSuper Royal flush15,000,000
224/09 15:50MATACEKUNGSuper Royal flush15,000,000
324/09 09:42ORAMUTU68Super Royal flush15,000,000
424/09 03:52KAMANA2425Super Royal flush15,000,000
523/09 23:40WDTERUS_12Super Royal flush6,000,000
TOP ROYAL FLUSH
No.TanggalNamaPriceWin
124/09 22:14MASCOLORIRoyal flush5,000,000
224/09 22:11ZHOEYRoyal flush5,000,000
324/09 22:09DOBELCOINRoyal flush5,000,000
424/09 21:52IDUNG987Royal flush1,000,000
524/09 21:38HAJARKAN91Royal flush10,000,000
TOP STRAIGHT FLUSH
No.TanggalNamaPriceWin
124/09 22:31JUNAKAPAS1Straight Flush240,000
224/09 22:31KORAN182Straight Flush240,000
324/09 22:31DWBTOZ69Straight Flush1,200,000
424/09 22:30H3P3N99Straight Flush240,000
524/09 22:29BU4Y00Straight Flush120,000
LATEST JACKPOT
No.TanggalNamaPriceWin
124/09 22:34SAGLE22Four Of A Kind50,000
224/09 22:34G1H2H11QQFull House5,000
324/09 22:34RAMMB0Full House5,000
424/09 22:34ABU188Full House1,000
524/09 22:34R3MONFull House2,000
624/09 22:34NOHNIT999Four Of A Kind125,000
724/09 22:34CIPRUT20Full House2,000
824/09 22:34UENWDFull House2,000
924/09 22:34YANAZAIINFull House2,000
1024/09 22:34CARIKSALAMFull House1,000
1124/09 22:34JANCOOKKOEFull House2,000
1224/09 22:34C0MPUTERFour Of A Kind125,000
1324/09 22:34YUHU206Full House5,000
1424/09 22:34JOY6666Full House2,000
1524/09 22:34ANTTON1Full House2,000
1624/09 22:34GILAKARTUXFull House500
1724/09 22:34GANIS86Full House2,000
1824/09 22:34JOKE12FACEFull House5,000
1924/09 22:34DEMITEMPANFull House2,000
2024/09 22:34PAPIFIOFull House5,000
2124/09 22:34LESMANA77Full House1,000
2224/09 22:34DONKGOFull House20,000
2324/09 22:34WZR101Full House5,000
2424/09 22:34JAGOAN8282Full House500
2524/09 22:34FSE070E04MFour Of A Kind250,000
2624/09 22:34EKKIAJA12Full House2,000
2724/09 22:34ARMENQFull House5,000
2824/09 22:34VIPKIDATMFull House1,000
2924/09 22:34MARBLE29Four Of A Kind50,000
3024/09 22:34NILA02Full House2,000
3124/09 22:34NJT0THTUS3Full House2,000
3224/09 22:34HAROM77Full House2,000
3324/09 22:34JENE00Full House5,000
3424/09 22:33ASIAMILFFull House5,000
3524/09 22:33SYHRTOKUPIFull House2,000
3624/09 22:33B5057158Full House2,000
3724/09 22:33COS12345Full House2,000
3824/09 22:33ROEFIE1Full House1,000
3924/09 22:33ALVASSSFull House10,000
4024/09 22:33KAXXXXFull House10,000
4124/09 22:33LEO_6666Full House10,000
4224/09 22:33JACPOT_BOSFour Of A Kind50,000
4324/09 22:33NERAKA4444Full House500
4424/09 22:33PAPO79Full House1,000
4524/09 22:33TANGGHU99Full House10,000
4624/09 22:33BOSS74Full House2,000
4724/09 22:33SABRINE1Full House1,000
4824/09 22:33HENDRYANAFull House1,000
4924/09 22:33DEWODEWIFull House5,000
5024/09 22:33AZKA5758Full House20,000

Domino Multi Jackpot System

Ikutilah global jackpot yang tersedia di system kami, dengan system jackpot terbaru dan pertama di indonesia, anda dapat membeli jackpot dengan harga 100 rupiah saja dan menangkan hadiahnya hingga puluhan juta rupiah.

Jackpot bukanlah suatu keharusan untuk dibeli, namun kami memberikan suatu fitur tambahan untuk member tercinta dari www.ingatpoker.com.

Terdapat tiga pilihan harga jackpot yang bisa anda beli yaitu :100,500 dan 1000 rupiah.

Hadiah dari Multi jackpot system www.ingatpoker.com

  1. Murni Kecil x 50 harga jackpot yang anda beli.
      (contoh:anda membeli 1000 maka:1000 X 50 = 50.000)
  2. Murni Besar x 50 harga jackpot yang anda beli
      (contoh:anda membeli 1000 maka:1000 X 50 = 50.000)
  3. BALAK x 100 harga jackpot yang anda beli
      (contoh:anda membeli 1000 maka:1000 X 100 = 100.000)
  4. ENAM DEWA x 6666 harga jackpot yang anda beli
      (contoh:anda membeli 1000 maka:1000 X 6666 = 6.666.000)

Demikian adalah penjelasan dari Multi Jackpot www.ingatpoker.com terima kasih dan selamat bermain salam hoki dari kami

Domino Jackpot Winner

TOP ENAM DEWA
No.TanggalNamaPriceWin
124/09 21:41FERNAPKQmurni enam666,600
224/09 21:40V4K9128UVQmurni enam6,666,000
324/09 21:38AADDALLG1murni enam3,333,000
424/09 19:55ADEBANGK63murni enam3,333,000
524/09 11:31KING_JO3murni enam3,333,000
TOP BALAK
No.TanggalNamaPriceWin
124/09 22:34HOCKYPOKERbalak100,000
224/09 22:32MENIK888balak50,000
324/09 22:32NOSENSORbalak100,000
424/09 22:28PIRMCL9balak100,000
524/09 22:25FERNAPKQbalak10,000
LATEST JACKPOT
No.TanggalNamaPriceWin
124/09 22:34HOCKYPOKERbalak100,000
224/09 22:34AABARAmurni besar5,000
324/09 22:33CHAMUNG08murni kecil5,000
424/09 22:33JEKKAT99murni besar25,000
524/09 22:32MENIK888balak50,000
624/09 22:32NOSENSORbalak100,000
724/09 22:32SAMIN0000murni besar5,000
824/09 22:32RAFA201murni kecil25,000
924/09 22:32MAMOY54murni kecil5,000
1024/09 22:31BLACKID9murni kecil5,000
1124/09 22:31MPUSHmurni besar50,000
1224/09 22:29MOBILE66murni besar50,000
1324/09 22:29ET1murni besar25,000
1424/09 22:28PIRMCL9balak100,000
1524/09 22:28KINGAS168murni kecil50,000
1624/09 22:28BOYWIN10murni besar50,000
1724/09 22:28ECEP666murni besar50,000
1824/09 22:27DIANCR77murni kecil50,000
1924/09 22:27RAFIFBOY2murni besar25,000
2024/09 22:27OCOL8686murni besar5,000
2124/09 22:26BOOMB3R88murni besar50,000
2224/09 22:25NETTO99Gmurni besar50,000
2324/09 22:25FERNAPKQbalak10,000
2424/09 22:25ECEP666murni besar50,000
2524/09 22:24AOPPmurni kecil50,000
2624/09 22:24OCT33murni kecil5,000
2724/09 22:24CELANA99murni besar50,000
2824/09 22:23BOSBAINmurni besar25,000
2924/09 22:23LURAH28murni kecil50,000
3024/09 22:23TA2murni kecil50,000
3124/09 22:23ZICI33murni kecil5,000
3224/09 22:21BLACKID9murni kecil5,000
3324/09 22:20DOMEH999murni kecil50,000
3424/09 22:20ERLINA74murni kecil5,000
3524/09 22:20LENDING01murni besar50,000
3624/09 22:19MARGHIE17murni besar25,000
3724/09 22:19GIBLATmurni kecil50,000
3824/09 22:18SINATRAZmurni kecil5,000
3924/09 22:18KOSCR7murni kecil50,000
4024/09 22:18WAMPIRmurni kecil50,000
4124/09 22:18JAUNG04balak50,000
4224/09 22:18ZZZXXX2525murni kecil25,000
4324/09 22:17ARIEF765murni kecil50,000
4424/09 22:15DARSOXXXmurni besar25,000
4524/09 22:15TUTUT11murni besar25,000
4624/09 22:14ELI9991balak100,000
4724/09 22:14F13F4C59murni kecil25,000
4824/09 22:14GOLD145murni kecil25,000
4924/09 22:14JAGALBIANGmurni besar50,000
5024/09 22:13ACENG799murni kecil5,000

Ceme Multi Jackpot System

Jackpot dilihat dari gabungan kartu pemain dengan kartu bandar. Bandar harus membeli jackpot sebanyak jumlah player yang sedang duduk. Sebagai contoh bila terdapat 3 pemain duduk bermain, dan bandar memutuskan untuk membeli jackpot Rp 1.000, maka pada periode tersebut bandar akan membeli jackpot sebanyak 3xRp1.000 = Rp3.000.

Jackpot bukanlah suatu keharusan untuk dibeli, namun kami memberikan suatu fitur tambahan untuk member tercinta dari www.ingatpoker.com.

Terdapat tiga pilihan harga jackpot yang bisa anda beli yaitu :100,500 dan 1000 rupiah.

Hadiah dari Multi jackpot system www.ingatpoker.com

  1. Murni Kecil x 50 harga jackpot yang anda beli.
      (contoh:anda membeli 1000 maka:1000 X 50 = 50.000)
  2. Murni Besar x 50 harga jackpot yang anda beli
      (contoh:anda membeli 1000 maka:1000 X 50 = 50.000)
  3. BALAK x 200 harga jackpot yang anda beli
      (contoh:anda membeli 1000 maka:1000 X 200 = 200.000)
  4. ENAM DEWA x 6666 harga jackpot yang anda beli
      (contoh:anda membeli 1000 maka:1000 X 6666 = 6.666.000)

Demikian adalah penjelasan dari Multi Jackpot www.ingatpoker.com terima kasih dan selamat bermain salam hoki dari kami

Ceme Jackpot Winner

TOP ENAM DEWA
No.TanggalNamaPriceWin
124/09 22:27PISTON77murni enam3,333,000
224/09 22:15RAYA357murni enam6,666,000
324/09 21:44LANSER84murni enam6,666,000
424/09 21:37PUDGESmurni enam3,333,000
524/09 21:02IKA011413murni enam6,666,000
TOP BALAK
No.TanggalNamaPriceWin
124/09 22:33ZNYX10balak200,000
224/09 22:33CHABELA99balak200,000
324/09 22:33IWAN12121balak20,000
424/09 22:32WYX29T9S1Xbalak200,000
524/09 22:32DGR0MWG66Tbalak100,000
LATEST JACKPOT
No.TanggalNamaPriceWin
124/09 22:34FNB76murni kecil5,000
224/09 22:34WAGE29murni besar50,000
324/09 22:34CHABELA99murni kecil50,000
424/09 22:34UWEN20murni kecil5,000
524/09 22:34LEE00000murni kecil50,000
624/09 22:34PETHOT25murni kecil50,000
724/09 22:33ZNYX10balak200,000
824/09 22:33ASPIRE1murni kecil50,000
924/09 22:33CFPISANG90murni besar5,000
1024/09 22:33AAA6F3BCmurni kecil50,000
1124/09 22:33CHABELA99balak200,000
1224/09 22:33UNYYILLmurni kecil50,000
1324/09 22:33NINDYA04murni besar50,000
1424/09 22:33BUNTUT04murni besar50,000
1524/09 22:33JAMBULHOKImurni besar50,000
1624/09 22:33R1CK133murni kecil50,000
1724/09 22:33CHILDOUT46murni kecil50,000
1824/09 22:33IWAN12121balak20,000
1924/09 22:33NAYA555murni kecil50,000
2024/09 22:33RBTBGTmurni kecil5,000
2124/09 22:32M0M0KB4R3Hmurni besar25,000
2224/09 22:32JAMET249murni besar50,000
2324/09 22:32HOKYKOE86murni besar50,000
2424/09 22:32TOGOK78murni kecil50,000
2524/09 22:32WYX29T9S1Xbalak200,000
2624/09 22:32DGR0MWG66Tbalak100,000
2724/09 22:32S8LH6SAZBXmurni kecil25,000
2824/09 22:32PANGSITMImurni kecil5,000
2924/09 22:32DA2NAR4Amurni besar50,000
3024/09 22:32SOMMANmurni kecil50,000
3124/09 22:32EMPIX83murni kecil5,000
3224/09 22:32DWBTDEL79murni besar25,000
3324/09 22:32REMANGARUTmurni kecil25,000
3424/09 22:32YASURmurni kecil5,000
3524/09 22:32SWE_Nmurni kecil50,000
3624/09 22:32FIZHYMIRmurni kecil50,000
3724/09 22:32POKE986balak200,000
3824/09 22:32ABLEH007murni besar25,000
3924/09 22:32JAYENG99balak200,000
4024/09 22:32KOCU2895balak20,000
4124/09 22:31SAWO02murni besar50,000
4224/09 22:31OWLMIKYmurni besar5,000
4324/09 22:31ZATANICMDSmurni kecil50,000
4424/09 22:31CEONK6666murni kecil50,000
4524/09 22:31LISA503murni kecil5,000
4624/09 22:31PANTOPELmurni kecil50,000
4724/09 22:31XZRXCYbalak200,000
4824/09 22:31PANIROYbalak200,000
4924/09 22:31JUANGINDRAmurni kecil50,000
5024/09 22:31VIM123murni kecil5,000